Showing default

OPS 1593 (TRANSIT 11), 1952

Orbit data source: Space-Track

OPS 1593 (TRANSIT 11), 1952 is a payload satellite owned by USN BuWeps (US) in LEO that was launched on Fri, 28 Jan 1966 UTC via an SCOUT A launch vehicle from the Air Force Western Test Range (AFWTR). Payload-class satellites include a variety of spacecraft equipped with specific instruments for various scientific and technological missions. These include communications satellites like Starlink; space stations such as the ISS; scientific satellites like the Hubble; Earth observation satellites from companies like Planet Labs, Umbra, and HawkEye 360; GPS; miniature CubeSats for education and research; and military/defense satellites.

Loading next visibility...
Identifier
1952, 1966-005A
Orbit
LEO
Country
Flag of USUS
Related business
Manufacturer
NAFI
Mission
Spacecraft
Bus & Motor
TRANSIT 5, Unknown motor
Mass
~50 kg wet, ~50 kg dry
Launch date (UTC)
1966-01-28 (60 years ago)
Launch vehicle
SCOUT A
Launch site
Air Force Western Test Range (AFWTR)
Object type
Payload
Rocket body
Debris
Shape & HBR
Unknown
Radar Cross Section
Large (>1 m²)

Expand to show TLE details & history
Last TLE update: 10 hours ago

TLE from 10 hours ago
0 OPS 1593 (TRANSIT 11)
1 01952U 66005A   26095.28508700  .00000206  00000-0  19829-3 0  9996
2 01952  90.1526 350.7049 0215294 236.3431 121.7032 13.68116029996181
Epoch: 2026-04-05T06:50Z
TLE epoch observation values (Epoch: 2026-04-05T06:50:31.516Z)
Latitude
-0.00002°
Longitude
54.48088°
Altitude
1,095.324 km
Speed
7.262 km/s
True Right ascension
23h 22m 49s
True Declination
0° 00' 00"
Sunlit
Object was in daylight at epoch
Visualization orbit readout
Latitude
Unknown
Longitude
Unknown
Altitude
Unknown
Speed
Unknown
Apparent Right ascension
Unknown
Apparent Declination
Unknown
Sunlit
N/A
Visualization observer readout
Local Sidereal Time
22:25:15
Azimuth
Unknown
Elevation
Unknown
Doppler factor
Unknown
Orbital elements
Apogee altitude
1,162.283 km
Perigee altitude
844.445 km
Semi-major axis
7,381.501 km
Eccentricity
0.02153
Inclination
90.1526°
RAAN
350.7049°
Arg. of periapsis
236.3431°
True anomaly
123.77242°
Mean anomaly
121.7032°
Eccentric anomaly
122.74077°
Mean motion
3.42236 °/min
Orbital period
105.19 mins
BSTAR
0.00019829
Loading maneuver chart data...
Computing Atmospheric mass density...
Loading historical data...
Loading historical data...
Loading historical data...
Loading historical data...
Loading historical data...
Loading historical data...
Loading historical data...

Documentation

Showing up to 5 results
|